Location: Degersen
(52.2871°N, 9.5716°E)
Time: 06:55:38
(UTC+00:00)

Cosmos 1933 Rocket - Pass Details

Date: 20 January 2026
Orbit: 599 x 624 km, 82.5° (Epoch: 18 February)

Event Time Altitude Azimuth Distance (km) Brightness Sun altitude
Rises 06:29:02 0° 196° (SSW) 2,896 7.1 -7.6°
Reaches altitude 10° 06:31:16 10° 199° (SSW) 1,994 6.2 -7.3°
Maximum altitude 06:35:40 68° 282° (WNW) 675 3.6 -6.7°
Drops below altitude 10° 06:40:06 10° 7° (N) 2,005 6.0 -6.0°
Sets 06:42:21 0° 10° (N) 2,913 6.8 -5.7°
